This demonstration page uses our WeatherBlox Daily Observations layout. Learn more.

Left ArrowRight Arrow

53.62937, 11.41316

Hourly Observations for May 3, 2016

Temp ( °F °C ) Dew Point ( °F °C ) Humidity (%) Winds ( mph kmh ) Pressure ( in mb ) Visibility ( mi km ) Precip ( " mm )
6:20 am 06:20 Mostly Sunny 41 5 39 4 93 93 ENE 6 9 30.03 1017 7 11 N/A
6:50 am 06:50 Mostly Sunny 45 7 39 4 81 81 E 6 9 30.03 1017 7 11 N/A
7:20 am 07:20 Mostly Sunny 50 10 43 6 76 76 ENE 5 7 30.03 1017 7 11 N/A
7:50 am 07:50 Mostly Sunny 55 13 43 6 63 63 ESE 6 9 30.03 1017 7 11 N/A
8:20 am 08:20 Mostly Sunny 59 15 43 6 55 55 SE 6 9 30.03 1017 7 11 N/A
8:50 am 08:50 Mostly Sunny 59 15 43 6 55 55 S 8 13 30.00 1016 7 11 N/A
9:20 am 09:20 Mostly Sunny 61 16 43 6 52 52 SSW 12 19 30.03 1017 7 11 N/A
9:50 am 09:50 Mostly Sunny 61 16 45 7 55 55 SSW 12 19 30.03 1017 7 11 N/A
10:20 am 10:20 Mostly Sunny 61 16 43 6 52 52 SW 9 15 30.03 1017 7 11 N/A
10:50 am 10:50 Mostly Sunny 63 17 45 7 52 52 SSW 12 19 30.03 1017 7 11 N/A
11:20 am 11:20 Mostly Sunny 63 17 43 6 49 49 SSW 13 20 30.03 1017 7 11 N/A
11:50 am 11:50 Mostly Sunny 64 18 45 7 49 49 SW 12 19 30.03 1017 7 11 N/A
12:20 pm 12:20 Mostly Sunny 64 18 45 7 49 49 S 9 15 30.00 1016 7 11 N/A
12:50 pm 12:50 Mostly Sunny 63 17 46 8 56 56 WSW 9 15 30.00 1016 7 11 N/A
1:20 pm 13:20 Mostly Sunny 61 16 46 8 59 59 W 16 26 30.03 1017 7 11 N/A
1:50 pm 13:50 Mostly Cloudy 59 15 48 9 68 68 W 18 30 30.03 1017 30 48 N/A
2:20 pm 14:20 Mostly Cloudy 55 13 48 9 77 77 W 20 31 30.06 1018 30 48 N/A
2:50 pm 14:50 Mostly Cloudy 54 12 46 8 77 77 WNW 17 28 30.06 1018 30 48 N/A
3:09 pm 15:09 Mostly Cloudy 52 11 45 7 77 77 WNW 16 26 30.09 1019 30 48 N/A
3:20 pm 15:20 Mostly Cloudy 54 12 45 7 72 72 WNW 14 22 30.09 1019 30 48 N/A
3:50 pm 15:50 Mostly Cloudy 52 11 43 6 72 72 NW 15 24 30.09 1019 30 48 N/A
4:20 pm 16:20 Mostly Cloudy 52 11 43 6 72 72 NNW 16 26 30.12 1020 30 48 N/A
4:50 pm 16:50 Mostly Cloudy 50 10 41 5 71 71 NW 9 15 30.12 1020 30 48 N/A
5:20 pm 17:20 Mostly Cloudy 50 10 41 5 71 71 NW 7 11 30.12 1020 30 48 N/A
5:50 pm 17:50 Mostly Cloudy 50 10 43 6 76 76 NW 12 19 30.15 1021 30 48 N/A
6:20 pm 18:20 Mostly Cloudy 50 10 45 7 82 82 WNW 7 11 30.15 1021 30 48 N/A
6:50 pm 18:50 Mostly Cloudy 50 10 45 7 82 82 NW 5 7 30.12 1020 30 48 N/A

Powered by AerisWeather